User: anonymous   Login
Location: Unspecified
(0.0000°N, 0.0000°E)
Time: 22:22:11
(UTC+00:00)
Language:

FLOCK 4BE 1 - Orbit

View from above orbital plane
View from above orbital plane
View from above satellite
View from above satellite

Ground track
Ground track

The orbit is defined by the following mean orbital elements,

1 60518U          26145.14927856 +.00000000 +00000-0 +41356-3 0 00005
2 60518  97.3780 229.9250 0004099  39.4953 320.6592 15.41717753    08
Epoch (UTC): 25 May 2026 03:34:57
Eccentricity: 0.0004099
inclination: 97.3780°
perigee height: 438 km
apogee height: 444 km
right ascension of ascending node: 229.9250°
argument of perigee: 39.4953°
revolutions per day: 15.41717753
mean anomaly at epoch: 320.6592°

The dashed part of the orbit path shows where the satellite is in the earth's shadow,  

DLR